Lid_Strength_Index
6 7 7 7 7 7 7 7 8 7 7 6 7 6 5 4 4 4 4 4 3 3 2 2 2 2 1 1 1 0 1 1 1 0 0 0 0 -0 -0 -0 -0 -0 -0 -0
7 8 8 8 7 7 7 7 7 7 7 6 5 5 5 5 5 5 4 4 3 3 3 2 2 2 1 1 1 1 1 1 0 0 0 1 1 1 0 0 0 -0 0 0
9 7 8 9 7 7 6 6 6 7 7 6 6 6 5 5 5 5 4 4 4 3 3 2 2 1 2 1 1 1 1 1 1 1 1 1 1 2 1 1 1 0 0 0
8 7 11 7 6 6 6 6 6 6 6 6 6 5 4 4 4 5 4 4 3 3 3 2 2 1 1 1 1 2 1 2 1 1 2 2 2 3 1 1 1 1 1 1
9 9 9 8 7 7 7 8 6 6 6 5 5 5 5 4 3 4 3 3 3 2 2 2 2 1 2 2 2 2 2 2 2 2 2 2 1 1 1 1 1 1 1 0
8 10 11 7 6 5 5 10 5 5 6 6 5 7 7 4 3 3 3 3 3 2 2 2 2 1 2 2 2 2 3 2 2 2 2 1 1 1 1 1 1 1 1 0
8 9 8 6 5 4 10 8 5 5 5 5 5 5 4 3 3 3 3 2 2 2 2 2 1 1 2 2 2 1 1 0 0 0 0 0 1 0 1 1 1 1 1 0
7 9 10 5 5 8 5 4 4 4 4 4 4 4 4 3 3 3 3 2 2 2 2 2 1 1 2 2 1 0 0 0 0 0 0 0 0 1 1 1 2 2 2 2
6 7 5 4 4 3 3 4 4 4 3 3 4 4 4 4 3 3 3 2 2 2 2 1 1 1 2 1 1 1 0 1 1 1 0 0 1 1 2 2 2 3 3 4
7 6 5 4 4 3 3 3 3 3 3 3 4 4 4 3 3 3 2 2 2 2 2 2 1 1 1 0 0 1 1 1 1 1 1 0 1 1 2 2 4 4 5 5
8 6 5 5 4 3 3 3 3 3 3 3 3 4 4 3 3 3 2 2 2 2 2 2 2 1 1 0 0 1 1 1 1 1 1 1 3 4 1 3 4 3 3 3
7 5 5 5 3 3 4 3 3 3 3 3 3 4 3 3 3 2 2 2 2 2 2 2 2 1 1 0 0 1 1 2 2 2 2 2 2 3 10 9 10 11 10 4
4 4 4 3 3 3 3 3 3 3 3 4 3 3 3 3 3 3 3 2 2 2 2 1 1 1 0 -0 -0 0 1 1 1 1 1 1 1 2 2 5 8 10 10 10
3 3 5 4 5 3 3 3 3 3 3 3 3 2 3 3 3 3 3 2 1 1 1 1 1 1 0 -0 0 0 0 3 0 0 1 1 1 1 1 2 3 3 7 8
4 3 3 3 3 3 3 3 4 4 4 4 3 3 3 3 3 3 2 1 1 1 1 1 1 1 -0 -0 0 0 1 0 0 1 1 1 0 1 1 1 2 2 1 5
4 3 3 4 4 4 3 3 4 4 4 4 4 3 3 2 2 2 1 1 2 2 2 1 1 0 -0 -0 0 0 1 3 1 1 1 1 1 1 1 2 2 2 2 2
5 5 5 5 4 4 4 3 4 4 4 4 3 3 2 2 2 3 3 2 2 2 2 2 3 1 1 1 1 5 4 1 2 1 2 2 1 1 1 1 2 2 3 4
3 3 3 3 4 4 4 3 3 3 3 3 2 2 2 3 3 2 3 2 2 3 3 2 2 3 3 4 3 2 2 2 2 2 2 2 3 3 3 3 3 3 2 3
3 3 3 3 3 3 3 3 3 3 2 2 3 3 2 2 2 2 2 2 3 4 4 3 4 3 3 4 3 3 3 4 4 4 4 4 3 3 3 3 2 2 2 2
3 3 3 3 3 3 3 3 3 3 2 2 2 2 2 2 3 3 3 4 3 4 3 4 3 4 4 4 3 4 4 4 4 4 3 3 3 2 2 4 3 2 2 2
4 3 3 3 3 3 2 2 2 3 2 2 2 2 2 3 3 3 4 4 4 4 4 4 4 4 4 3 3 4 4 3 3 3 3 2 2 2 2 2 2 1 1 1
3 3 3 3 3 3 2 2 2 2 2 2 2 2 3 4 4 4 3 4 5 8 4 4 4 5 4 4 3 3 2 2 1 1 1 1 1 2 1 1 1 1 1 1
3 3 3 3 3 3 2 2 2 2 2 2 2 2 3 4 4 6 6 4 5 6 3 4 5 6 5 2 1 1 1 1 1 1 1 1 1 1 1 1 1 1 1 1
3 3 3 2 2 3 3 2 2 1 1 1 1 1 3 5 5 5 5 7 8 5 4 5 5 5 5 1 1 0 1 1 1 1 1 4 1 1 1 1 1 1 1 1
3 3 3 3 3 3 3 2 2 2 2 2 3 3 4 5 6 5 5 5 7 6 4 6 5 4 2 0 1 1 1 1 1 1 1 1 1 1 1 0 1 1 1 0
4 3 3 2 3 2 2 2 3 2 3 5 5 5 5 5 5 4 4 5 4 5 3 2 1 1 1 1 1 1 1 0 1 0 1 0 0 0 1 1 1 1 1 1
3 4 3 2 2 2 2 2 3 4 5 5 6 5 5 5 5 5 6 4 3 3 2 1 1 1 1 1 1 1 1 0 2 0 0 0 0 0 1 1 1 1 0 0